Location: Leiter
(44.7178°N, 106.2687°W)
Time: 15:21:43
(UTC+00:00)

Tiangong - Pass Details

Date: 29 January 2022
Orbit: 386 x 389 km, 41.5° (Epoch: 21 May)

Event Time Altitude Azimuth Distance (km) Brightness Sun altitude
Rises 02:27:33 0° 252° (WSW) 2,367 6.3 -24.7°
Reaches altitude 10° 02:29:42 10° 246° (WSW) 1,508 4.9 -25.1°
Enters shadow 02:31:28 26° 230° (SW) 874 3.3 -25.4°
